Regional Weather Roundup
Issued by NWS

Home | Current Version | Previous Version | Text Only | Print | Product List | Glossary Off
Versions: 1 2 3 4 5 6 7 8 9 10 11 12 13 14 15 16 17 18 19 20 21 22 23 24 25 26 27 28 29 30 31 32 33 34 35 36 37 38 39 40 41 42 43 44 45 46 47 48 49 50

594
ASUS44 KMEG 290710
RWRTN
TENNESSEE HOURLY STATE WEATHER ROUNDUP
NATIONAL WEATHER SERVICE MEMPHIS TN
200 AM CDT FRI JUL 29 2016

TNZ002-004-019-021-049-052-054-088>092-290800-
WEST TENNESSEE

CITY           SKY/WX    TMP DP  RH WIND       PRES   REMARKS
MEMPHIS INTL   PTCLDY    76  73  91 SW3       29.96S
NWS MEMPHIS      N/A     77 N/A N/A MISG        N/A
JACKSON        CLOUDY    77  76  96 SW6       29.96F
DYERSBURG      CLOUDY   N/A N/A N/A MISG        N/A
UNION CITY     PTCLDY    72  72 100 CALM      29.92F
PARIS          MOCLDY    73  72  94 CALM      29.95F
LEXINGTON      CLOUDY    75  73  94 SW5       29.96F
$$

TNZ008-025-027-028-033-062-065-066-290800-
NORTH MIDDLE TENNESSEE

CITY           SKY/WX    TMP DP  RH WIND       PRES   REMARKS
NASHVILLE      CLOUDY    77  73  87 SW6       29.95F
CLARKSVILLE    MOCLDY    77  75  93 W5        29.94R
SMYRNA         MOCLDY    76  74  93 SW5       29.97S
COOKEVILLE     CLOUDY    73  73 100 SW8       29.98S
CROSSVILLE     CLOUDY    71  70  96 W7        30.04S
$$

TNZ061-075-076-078-094-096-097-290800-
SOUTH MIDDLE TENNESSEE

CITY           SKY/WX    TMP DP  RH WIND       PRES   REMARKS
FAYETTEVILLE   CLOUDY    73  72  94 SW6       30.01S FOG
TULLAHOMA      CLOUDY    72  72 100 SW8       30.02R
WINCHESTER     CLOUDY    72  72 100 CALM      30.01S
MCMINNVILLE    CLOUDY    73  73 100 SW3       30.00S
COLUMBIA       CLOUDY   N/A N/A N/A SW9       29.97S
SHELBYVILLE    CLOUDY    75  73  94 SW5       30.00S
$$

TNZ017-018-042-046-047-290800-
NORTHEAST TENNESSEE

CITY           SKY/WX    TMP DP  RH WIND       PRES   REMARKS
TRI CITIES     MOCLDY    70  68  93 SW3       29.99S
ELIZABETHTON   CLOUDY    72  70  94 W6        29.98S
$$

TNZ012-013-036-069-073-074-290800-
CENTRAL EAST TENNESSEE

CITY           SKY/WX    TMP DP  RH WIND       PRES   REMARKS
KNOXVILLE      MOCLDY    73  71  93 SW8       29.98S
OAK RIDGE      PTCLDY    72  70  93 SW3       29.99F
GATLINBURG     CLEAR     72  70  94 CALM      29.98S
MORRISTOWN     CLOUDY    72  72 100 SW6       29.99R
$$

TNZ083-085-099-290800-
SOUTHEAST TENNESSEE

CITY           SKY/WX    TMP DP  RH WIND       PRES   REMARKS
CHATTANOOGA    CLOUDY    75  71  87 S5        29.99S
$$

SKY/WX REPORTED AS FAIR MEANS FEW OR NO CLOUDS BELOW
12 THOUSAND FEET.





USA.gov is the U.S. government's official web portal to all federal, state and local government web resources and services.